When you browse on this site, cookies collect data to enhance your experience and personalize the content and advertising you see.
Visit our Privacy Policy to learn more. By continuing to use the site, you agree to this use of cookies and data.
  • In France
  • List of Countries
  • For 7 days
  • Water Temperature
  • Weather Map
  • Weather Widgets
  • user-avatar
    Login

    Hourly Weather Winter Gardens

    Today, 29 May, Friday

    Time Temperature Precipitation Wind Pressure Humidity
    00:00 +18°C° 0 mm 0 mps 737 mmHg 82%
    01:00 +18°C° 0 mm 0 mps 736 mmHg 82%
    02:00 +18°C° 0 mm 0 mps 736 mmHg 84%
    03:00 +17°C° 0 mm 0 mps 736 mmHg 85%
    04:00 +17°C° 0 mm 0 mps 736 mmHg 89%
    05:00 +20°C° 0 mm 1 mps 737 mmHg 85%
    06:00 +21°C° 0 mm 1 mps 737 mmHg 82%
    07:00 +21°C° 0 mm 1 mps 738 mmHg 78%
    08:00 +23°C° 0 mm 2 mps 738 mmHg 73%
    09:00 +24°C° 0 mm 2 mps 738 mmHg 67%
    10:00 +25°C° 0 mm 3 mps 738 mmHg 62%
    11:00 +26°C° 0 mm 3 mps 738 mmHg 60%
    12:00 +26°C° 0 mm 3 mps 737 mmHg 57%
    13:00 +27°C° 0 mm 4 mps 737 mmHg 55%
    14:00 +27°C° 0 mm 4 mps 737 mmHg 53%
    15:00 +27°C° 0 mm 3 mps 737 mmHg 51%
    16:00 +27°C° 0 mm 3 mps 737 mmHg 49%
    17:00 +25°C° 0 mm 3 mps 737 mmHg 57%
    18:00 +23°C° 0 mm 2 mps 737 mmHg 66%
    19:00 +20°C° 0 mm 2 mps 737 mmHg 74%
    20:00 +19°C° 0 mm 2 mps 737 mmHg 76%
    21:00 +19°C° 0 mm 2 mps 738 mmHg 78%
    22:00 +18°C° 0 mm 2 mps 738 mmHg 81%
    23:00 +19°C° 0 mm 1 mps 738 mmHg 81%

    Tomorrow, 30 May, Saturday

    Time Temperature Precipitation Wind Pressure Humidity
    00:00 +19°C° 0 mm 1 mps 738 mmHg 81%
    01:00 +18°C° 0 mm 1 mps 737 mmHg 81%
    02:00 +18°C° 0 mm 1 mps 737 mmHg 81%
    03:00 +18°C° 0 mm 1 mps 737 mmHg 81%
    04:00 +18°C° 0 mm 1 mps 737 mmHg 81%
    05:00 +19°C° 0 mm 1 mps 737 mmHg 73%
    06:00 +20°C° 0 mm 1 mps 737 mmHg 66%
    07:00 +19°C° 0 mm 0 mps 738 mmHg 58%
    08:00 +22°C° 0 mm 1 mps 738 mmHg 51%
    09:00 +24°C° 0 mm 2 mps 738 mmHg 45%
    10:00 +25°C° 0 mm 3 mps 738 mmHg 38%
    11:00 +26°C° 0 mm 4 mps 737 mmHg 37%
    12:00 +27°C° 0 mm 4 mps 737 mmHg 36%
    13:00 +28°C° 0 mm 5 mps 737 mmHg 34%
    14:00 +27°C° 0 mm 5 mps 736 mmHg 36%
    15:00 +26°C° 0 mm 4 mps 736 mmHg 38%
    16:00 +26°C° 0 mm 4 mps 736 mmHg 40%
    17:00 +23°C° 0 mm 4 mps 736 mmHg 47%
    18:00 +22°C° 0 mm 3 mps 736 mmHg 54%
    19:00 +20°C° 0 mm 3 mps 736 mmHg 61%
    20:00 +19°C° 0 mm 2 mps 736 mmHg 65%
    21:00 +19°C° 0 mm 2 mps 736 mmHg 70%
    22:00 +19°C° 0 mm 1 mps 737 mmHg 75%
    23:00 +19°C° 0 mm 1 mps 736 mmHg 74%

    Day after tomorrow, 31 May, Sunday

    Time Temperature Precipitation Wind Pressure Humidity
    00:00 +18°C° 0 mm 1 mps 736 mmHg 74%
    01:00 +18°C° 0 mm 1 mps 735 mmHg 74%
    02:00 +18°C° 0 mm 1 mps 735 mmHg 73%
    03:00 +18°C° 0 mm 1 mps 735 mmHg 72%
    04:00 +16°C° 0 mm 1 mps 735 mmHg 71%
    05:00 +19°C° 0 mm 1 mps 735 mmHg 65%
    06:00 +20°C° 0 mm 1 mps 736 mmHg 58%
    07:00 +22°C° 0 mm 1 mps 736 mmHg 52%
    08:00 +23°C° 0 mm 2 mps 736 mmHg 48%
    09:00 +25°C° 0 mm 3 mps 736 mmHg 43%
    10:00 +26°C° 0 mm 3 mps 736 mmHg 39%
    11:00 +27°C° 0 mm 3 mps 736 mmHg 38%
    12:00 +28°C° 0 mm 4 mps 736 mmHg 38%
    13:00 +29°C° 0 mm 4 mps 735 mmHg 37%
    14:00 +28°C° 0 mm 4 mps 735 mmHg 38%
    15:00 +28°C° 0 mm 4 mps 734 mmHg 39%
    16:00 +27°C° 0 mm 3 mps 734 mmHg 39%
    17:00 +26°C° 0 mm 3 mps 734 mmHg 44%
    18:00 +24°C° 0 mm 3 mps 735 mmHg 50%
    19:00 +21°C° 0 mm 2 mps 735 mmHg 55%
    20:00 +20°C° 0 mm 2 mps 735 mmHg 59%
    21:00 +21°C° 0 mm 1 mps 735 mmHg 64%
    22:00 +20°C° 0 mm 1 mps 736 mmHg 69%
    23:00 +20°C° 0 mm 1 mps 735 mmHg 67%

    1 June, Monday

    Time Temperature Precipitation Wind Pressure Humidity
    00:00 +20°C° 0 mm 1 mps 735 mmHg 65%
    01:00 +19°C° 0 mm 1 mps 735 mmHg 64%
    02:00 +19°C° 0 mm 1 mps 735 mmHg 66%
    03:00 +19°C° 0 mm 1 mps 735 mmHg 68%
    04:00 +18°C° 0 mm 1 mps 735 mmHg 70%
    05:00 +20°C° 0 mm 1 mps 735 mmHg 64%
    06:00 +21°C° 0 mm 1 mps 736 mmHg 58%
    07:00 +22°C° 0 mm 1 mps 736 mmHg 53%
    08:00 +24°C° 0 mm 1 mps 736 mmHg 47%
    09:00 +26°C° 0 mm 2 mps 737 mmHg 42%
    10:00 +27°C° 0 mm 3 mps 737 mmHg 36%
    11:00 +28°C° 0 mm 3 mps 737 mmHg 35%
    12:00 +28°C° 0 mm 4 mps 736 mmHg 33%
    13:00 +29°C° 0 mm 4 mps 736 mmHg 32%
    14:00 +28°C° 0 mm 4 mps 736 mmHg 33%
    15:00 +28°C° 0 mm 4 mps 736 mmHg 35%
    16:00 +27°C° 0 mm 4 mps 736 mmHg 37%
    17:00 +25°C° 0 mm 3 mps 736 mmHg 42%
    18:00 +24°C° 0 mm 3 mps 736 mmHg 47%
    19:00 +22°C° 0 mm 3 mps 736 mmHg 51%
    20:00 +21°C° 0 mm 2 mps 737 mmHg 57%
    21:00 +20°C° 0 mm 2 mps 737 mmHg 62%
    22:00 +21°C° 0 mm 1 mps 737 mmHg 67%
    23:00 +21°C° 0 mm 1 mps 737 mmHg 67%

    2 June, Tuesday

    Time Temperature Precipitation Wind Pressure Humidity
    00:00 +20°C° 0 mm 1 mps 737 mmHg 67%
    01:00 +20°C° 0 mm 1 mps 737 mmHg 67%
    02:00 +20°C° 0 mm 1 mps 737 mmHg 67%
    03:00 +20°C° 0 mm 1 mps 737 mmHg 68%
    04:00 +20°C° 0 mm 1 mps 737 mmHg 69%
    05:00 +21°C° 0 mm 1 mps 737 mmHg 65%
    06:00 +21°C° 0 mm 1 mps 737 mmHg 61%
    07:00 +22°C° 0 mm 1 mps 738 mmHg 57%
    08:00 +23°C° 0 mm 2 mps 738 mmHg 54%
    09:00 +24°C° 0 mm 2 mps 738 mmHg 51%
    10:00 +25°C° 0 mm 2 mps 738 mmHg 49%
    11:00 +26°C° 0 mm 3 mps 738 mmHg 46%
    12:00 +26°C° 0 mm 3 mps 738 mmHg 44%
    13:00 +27°C° 0 mm 4 mps 738 mmHg 42%
    14:00 +27°C° 0 mm 4 mps 738 mmHg 43%
    15:00 +26°C° 0 mm 4 mps 737 mmHg 44%
    16:00 +26°C° 0 mm 4 mps 737 mmHg 44%
    17:00 +24°C° 0 mm 3 mps 737 mmHg 51%
    18:00 +23°C° 0 mm 2 mps 737 mmHg 57%
    19:00 +21°C° 0 mm 2 mps 737 mmHg 63%
    20:00 +20°C° 0 mm 2 mps 738 mmHg 67%
    21:00 +20°C° 0 mm 1 mps 738 mmHg 72%
    22:00 +19°C° 0 mm 1 mps 738 mmHg 77%
    23:00 +19°C° 0 mm 1 mps 738 mmHg 78%

    3 June, Wednesday

    Time Temperature Precipitation Wind Pressure Humidity
    00:00 +18°C° 0 mm 1 mps 737 mmHg 79%
    01:00 +18°C° 0 mm 1 mps 737 mmHg 80%
    02:00 +18°C° 0 mm 1 mps 737 mmHg 80%
    03:00 +18°C° 0 mm 1 mps 737 mmHg 80%
    04:00 +18°C° 0 mm 1 mps 737 mmHg 79%
    05:00 +19°C° 0 mm 1 mps 737 mmHg 73%
    06:00 +20°C° 0 mm 1 mps 737 mmHg 66%
    07:00 +22°C° 0 mm 1 mps 737 mmHg 59%
    08:00 +23°C° 0 mm 2 mps 738 mmHg 54%
    09:00 +25°C° 0 mm 3 mps 738 mmHg 49%
    10:00 +26°C° 0 mm 3 mps 738 mmHg 44%
    11:00 +27°C° 0 mm 4 mps 737 mmHg 42%
    12:00 +28°C° 0 mm 4 mps 737 mmHg 40%
    13:00 +28°C° 0 mm 5 mps 737 mmHg 39%
    14:00 +28°C° 0 mm 4 mps 736 mmHg 40%
    15:00 +27°C° 0 mm 4 mps 736 mmHg 42%
    16:00 +26°C° 0 mm 4 mps 736 mmHg 43%
    17:00 +25°C° 0 mm 4 mps 736 mmHg 50%
    18:00 +22°C° 0 mm 3 mps 736 mmHg 56%
    19:00 +20°C° 0 mm 2 mps 736 mmHg 63%
    20:00 +20°C° 0 mm 2 mps 736 mmHg 66%
    21:00 +19°C° 0 mm 2 mps 736 mmHg 70%
    22:00 +19°C° 0 mm 1 mps 736 mmHg 73%
    23:00 +19°C° 0 mm 1 mps 735 mmHg 75%
    Show more